Alabaster, AL

10:52 AM CDT on October 19, 2019 (GMT -0500)
Shelby County

Weather History for KEET - August, 2019

Change the Weather History Date:

Saturday, August 24, 2019

  Actual Average Record
Temperature  
Mean Temperature 82 °F 80 °F  
Max Temperature 93 °F 90 °F 99 °F (1983)
Min Temperature 71 °F 69 °F 57 °F (1956)
Cooling Degree Days 17 15  
Month to date cooling degree days 445 372  
Year to date cooling degree days 1734 1502  
Since 1 June cooling degree days 1337 1233  
Growing Degree Days 32 (Base 50)    
Moisture  
Dew Point 71 °F    
Average Humidity 68    
Maximum Humidity 94    
Minimum Humidity 41    
Precipitation  
Precipitation 0.12 in 0.15 in 3.38 in (1967)
Month to date precipitation 0.91 3.72  
Year to date precipitation 32.19 37.04  
Sea Level Pressure  
Sea Level Pressure 29.99 in    
Wind  
Wind Speed 2 mph (WNW)    
Max Wind Speed 10 mph    
Max Gust Speed 14 mph    
Visibility 9 miles    
Events Rain , Thunderstorm    
T = Trace of Precipitation, MM = Missing Value Source: NWS Daily Summary

Daily Weather History Graph

Daily Weather History Graph

Search for Another Location

Airport or City:

Astronomy

Aug. 24, 2019 Rise Set
Actual Time 6:15 AM CDT 7:22 PM CDT
Civil Twilight 5:50 AM CDT 7:48 PM CDT
Nautical Twilight 5:19 AM CDT 8:18 PM CDT
Astronomical Twilight 4:48 AM CDT 8:49 PM CDT
Moon 12:14 AM CDT (8/24) 2:29 PM CDT (8/24)
Length of Visible Light 13h 57m
Length of Day
13h 06m
Last Quarter, 39% of the Moon is Illuminated
Aug 24
Last Quarter
Aug 30
New
Sep 5
First Quarter
Sep 13
Full
Sep 21
Last Quarter

Hourly Weather History & Observations

Time (CDT) Temp. Heat Index Dew Point Humidity Pressure Visibility Wind Dir Wind Speed Gust Speed Precip Events Conditions
12:53 AM 73.9 °F - 70.0 °F 87% 30.00 in 10.0 mi Calm Calm - N/A   Clear
1:53 AM 73.0 °F - 70.0 °F 90% 29.99 in 10.0 mi Calm Calm - N/A   Clear
2:53 AM 73.0 °F - 70.0 °F 90% 29.99 in 10.0 mi Calm Calm - N/A   Clear
3:53 AM 72.0 °F - 70.0 °F 93% 30.00 in 10.0 mi Calm Calm - N/A   Clear
4:53 AM 72.0 °F - 70.0 °F 93% 30.00 in 10.0 mi Calm Calm - N/A   Clear
5:53 AM 72.0 °F - 70.0 °F 93% 30.00 in 10.0 mi Calm Calm - N/A   Clear
6:53 AM 73.0 °F - 70.0 °F 90% 30.02 in 10.0 mi Calm Calm - N/A   Clear
7:53 AM 77.0 °F - 71.1 °F 82% 30.03 in 10.0 mi Calm Calm - N/A   Clear
8:53 AM 79.0 °F - 72.0 °F 79% 30.04 in 10.0 mi Calm Calm - N/A   Clear
9:53 AM 82.9 °F 87.5 °F 71.1 °F 67% 30.04 in 10.0 mi Variable 3.5 mph - N/A   Clear
10:53 AM 88.0 °F 92.1 °F 69.1 °F 53% 30.02 in 10.0 mi Variable 4.6 mph - N/A   Clear
11:53 AM 88.0 °F 91.4 °F 68.0 °F 51% 30.01 in 10.0 mi Calm Calm - N/A   Mostly Cloudy
12:53 PM 93.0 °F 96.4 °F 66.9 °F 42% 29.98 in 10.0 mi WNW 4.6 mph - N/A   Scattered Clouds
1:31 PM 84.0 °F 89.6 °F 72.0 °F 67% 30.00 in 2.0 mi Calm Calm - 0.04 in Rain Rain
1:40 PM 82.0 °F 87.9 °F 73.9 °F 76% 30.00 in 3.0 mi North - - 0.08 in Rain Light Rain
1:44 PM 81.0 °F 85.8 °F 73.0 °F 77% 30.00 in 1.8 mi WSW 4.6 mph - 0.11 in Rain Heavy Rain
1:53 PM 82.9 °F 88.8 °F 73.0 °F 72% 29.97 in 3.0 mi SW 4.6 mph - 0.12 in Rain Light Rain
2:02 PM 84.9 °F 92.1 °F 73.9 °F 69% 29.99 in 10.0 mi SSE 4.6 mph - 0.00 in Rain , Thunderstorm Light Thunderstorms and Rain
2:17 PM 82.9 °F 88.8 °F 73.0 °F 72% 29.99 in 10.0 mi East 4.6 mph - 0.00 in   Mostly Cloudy
2:53 PM 84.0 °F 89.6 °F 72.0 °F 67% 29.95 in 10.0 mi Variable 4.6 mph - 0.00 in Thunderstorm Mostly Cloudy
3:10 PM 82.9 °F 88.0 °F 72.0 °F 69% 29.98 in 10.0 mi Calm Calm - 0.00 in Rain Light Rain
3:53 PM 86.0 °F 91.5 °F 71.1 °F 61% 29.94 in 10.0 mi Variable 4.6 mph - 0.00 in   Scattered Clouds
4:41 PM 84.0 °F 89.6 °F 72.0 °F 67% 29.97 in 10.0 mi Variable 4.6 mph - N/A Thunderstorm Partly Cloudy
4:53 PM 84.0 °F 89.6 °F 72.0 °F 67% 29.95 in 10.0 mi WNW 3.5 mph - N/A Thunderstorm Partly Cloudy
5:01 PM 84.0 °F 89.6 °F 72.0 °F 67% 29.98 in 10.0 mi WNW 5.8 mph - N/A   Partly Cloudy
5:53 PM 80.1 °F 83.6 °F 71.1 °F 74% 29.97 in 10.0 mi NW 4.6 mph - N/A   Clear
6:53 PM 78.1 °F - 72.0 °F 81% 29.97 in 10.0 mi WNW 3.5 mph - N/A   Mostly Cloudy
7:53 PM 77.0 °F - 73.0 °F 88% 29.98 in 10.0 mi NW 3.5 mph - N/A   Clear
8:53 PM 77.0 °F - 73.0 °F 88% 29.99 in 10.0 mi WNW 4.6 mph - N/A   Partly Cloudy
9:53 PM 78.1 °F - 73.0 °F 84% 30.00 in 10.0 mi Calm Calm - N/A   Overcast
10:53 PM 75.9 °F - 72.0 °F 87% 30.00 in 10.0 mi Calm Calm - N/A   Scattered Clouds
11:53 PM 75.9 °F - 73.0 °F 91% 30.00 in 10.0 mi Calm Calm - N/A   Clear